Location: Isola Pescaroli
(45.0500°N, 10.1667°E)
Time: 23:51:15
(UTC+00:00)

SL-4 R/B - Pass Details

Date: 20 June 2021
Orbit: 428 x 662 km, 51.6° (Epoch: 29 July)

Event Time Altitude Azimuth Distance (km) Brightness Sun altitude
Rises 23:33:27 0° 273° (W) 2,676 5.5 -21.5°
Reaches altitude 10° 23:35:55 10° 284° (WNW) 1,741 4.7 -21.4°
Maximum altitude 23:39:28 32° 349° (NNW) 853 3.6 -21.4°
Drops below altitude 10° 23:42:50 10° 55° (NE) 1,628 4.9 -21.3°
Sets 23:45:03 0° 65° (ENE) 2,472 5.8 -21.3°
